Location: Sihaung
(22.8641°N, 94.0549°E)
Time: 01:26:58
(UTC+00:00)

Envisat - Pass Details

Date: 03 March 2021
Orbit: 764 x 766 km, 98.1° (Epoch: 13 April)

Event Time Altitude Azimuth Distance (km) Brightness Sun altitude
Rises 23:26:20 0° 6° (N) 3,228 6.3 -9.2°
Reaches altitude 10° 23:28:39 10° 3° (N) 2,299 5.5 -8.7°
Maximum altitude 23:33:39 62° 284° (WNW) 856 3.0 -7.5°
Drops below altitude 10° 23:38:37 10° 204° (SSW) 2,290 5.3 -6.4°
Sets 23:40:56 0° 201° (SSW) 3,214 6.1 -5.9°
